Regional Weather Roundup
Issued by NWS

Home | Current Version | Previous Version | Graphics & Text | Print | Product List | Glossary Off
Versions: 1 2 3 4 5 6 7 8 9 10 11 12 13 14 15 16 17 18 19 20 21 22 23 24 25 26 27 28 29 30 31 32 33 34 35 36 37 38 39 40 41 42 43 44 45 46 47 48 49 50

000
ASUS43 KFSD 102302
RWRSD

WEATHER ROUNDUP FOR SOUTH DAKOTA
NATIONAL WEATHER SERVICE SIOUX FALLS SD
500 PM CST SUN DEC 10 2017

NOTE: "FAIR" INDICATES FEW OR NO CLOUDS BELOW 12,000 FEET WITH NO
SIGNIFICANT WEATHER AND/OR OBSTRUCTIONS TO VISIBILITY.


SDZ001>005-009-010-012>017-110000-
NORTHWEST AND NORTH CENTRAL SOUTH DAKOTA

CITY           SKY/WX    TMP DP  RH WIND       PRES   REMARKS
BUFFALO          N/A     47  20  34 NW16      30.03F
FAITH            N/A     49  16  26 W15       30.08R
MOBRIDGE       CLOUDY    42  29  59 NW9       30.00F
$$

SDZ012>016-024>037-041>051-057-063-072>074-110000-
SOUTHWEST AND SOUTH CENTRAL SOUTH DAKOTA

CITY           SKY/WX    TMP DP  RH WIND       PRES   REMARKS
RAPID CTY ARPT CLEAR     56   4  12 NW12      30.13F
PIERRE         CLOUDY    51  24  34 N9        30.04F
CUSTER         CLOUDY    46   2  16 NW10G22   30.20F
ELLSWORTH AFB  CLEAR     54   4  13 NW13      30.13F
PHILIP         CLEAR     55  13  18 W15       30.09S
PINE RIDGE     CLEAR     50  17  27 W5        30.18F
SPEARFISH      FAIR      52   9  17 W14G21    30.17F
WINNER         FAIR      54  18  24 W10       30.07F
$$

SDZ004>011-016>023-039-040-110000-
NORTHEAST SOUTH DAKOTA

CITY           SKY/WX    TMP DP  RH WIND       PRES   REMARKS
ABERDEEN       CLOUDY    40  27  59 NW6       30.02F
WATERTOWN      CLOUDY    35  28  75 W3        30.01F
BROOKINGS      CLOUDY    36  28  73 CALM      30.04S
SISSETON         N/A     35  25  66 SE7       30.01S WCI  29
$$

SDZ017-020-022-023-036>040-048>070-110000-
SOUTHEAST SOUTH DAKOTA

CITY           SKY/WX    TMP DP  RH WIND       PRES   REMARKS
SIOUX FALLS    CLEAR     38  29  70 W5        30.06S
HURON          CLOUDY    37  29  72 NW9       30.05S
CHAMBERLAIN    CLEAR     50  26  38 N5        30.07S
MITCHELL       CLEAR     40  29  64 NW5       30.07S
YANKTON        CLEAR     44  26  49 W3        30.09R
$$

ABBREVIATIONS USED IN REMARKS
   TC - TEMPERATURE IN CELSIUS
  WCI - WIND CHILL INDEX
   HX - HEAT INDEX
  VSB - VISIBILITY





USA.gov is the U.S. government's official web portal to all federal, state and local government web resources and services.